STARLINK-3838, 52352

Orbit data source: Space-Track

STARLINK-3838, 52352 is a payload satellite owned by SpaceX/Seattle (US) in LEO that was launched on Fri, 29 Apr 2022 UTC via an FALCON 9 launch vehicle from the Air Force Eastern Test Range (AFETR). Payload-class satellites include a variety of spacecraft equipped with specific instruments for various scientific and technological missions. These include communications satellites like Starlink; space stations such as the ISS; scientific satellites like the Hubble; Earth observation satellites from companies like Planet Labs, Umbra, and HawkEye 360; GPS; miniature CubeSats for education and research; and military/defense satellites.

Loading next visibility...
Identifier
52352, 2022-045X
Orbit
LEO
Country
Flag of USUS
Related business
Manufacturer
SpaceX/Seattle
Mission
Operational Commercial Communications
Bus & Motor
STARLINK, Unknown motor
Mass
297 kg wet, ~275 kg dry
Launch date (UTC)
2022-04-29 (4 years ago)
Launch vehicle
FALCON 9
Launch site
Air Force Eastern Test Range (AFETR)
Object type
Payload
Rocket body
Debris
Shape & HBR
Box + 1 Pan, 10.1 m
Radar Cross Section
11.087 m², Large (>1 m²)

Expand to show TLE details & history
Last TLE update: 7 hours ago

TLE from 7 hours ago
0 STARLINK-3838
1 52352U 22045X   26119.82258458  .00000194  00000-0  30308-4 0  9993
2 52352  53.2178 329.5769 0001255  86.5766 273.5369 15.08837545223500
Epoch: 2026-04-29T19:44Z
TLE epoch observation values (Epoch: 2026-04-29T19:44:31.307Z)
Latitude
-0.00009°
Longitude
175.66836°
Altitude
540.595 km
Speed
7.593 km/s
True Right ascension
21h 58m 18s
True Declination
0° 00' 00"
Sunlit
Object was in daylight at epoch
Visualization orbit readout
Latitude
Unknown
Longitude
Unknown
Altitude
Unknown
Speed
Unknown
Apparent Right ascension
Unknown
Apparent Declination
Unknown
Sunlit
N/A
Visualization observer readout
Local Sidereal Time
10:28:35
Azimuth
Unknown
Elevation
Unknown
Doppler factor
Unknown
Orbital elements
Apogee altitude
540.864 km
Perigee altitude
539.128 km
Semi-major axis
6,918.133 km
Eccentricity
0.00013
Inclination
53.2178°
RAAN
329.5769°
Arg. of periapsis
86.5766°
True anomaly
273.52255°
Mean anomaly
273.5369°
Eccentric anomaly
273.52972°
Mean motion
3.7719 °/min
Orbital period
95.44 mins
BSTAR
0.000030308
Loading maneuver chart data...
Computing Atmospheric mass density...
Loading historical data...
Loading historical data...
Loading historical data...
Loading historical data...
Loading historical data...
Loading historical data...
Loading historical data...

Documentation

Showing up to 5 results
|